This demonstration page uses our WeatherBlox Daily Observations layout. Learn more.

Left ArrowRight Arrow

39.92423, -83.80882

Hourly Observations for August 23, 2021

Temp ( °F °C ) Dew Point ( °F °C ) Humidity (%) Winds ( mph kmh ) Pressure ( in mb ) Visibility ( mi km ) Precip ( " mm )
12:56 am 00:56 Clear 70 21 N/A N/A Calm 29.97 1015 10 16 0.00 0.00
1:56 am 01:56 Clear 70 21 N/A N/A Calm 29.97 1015 8 13 0.00 0.00
2:56 am 02:56 Hazy 70 21 N/A N/A Calm 29.98 1015 6 10 0.00 0.00
3:56 am 03:56 Hazy 66 19 N/A N/A SW 3 6 29.97 1015 5 8 0.00 0.00
4:56 am 04:56 Hazy 66 19 N/A N/A Calm 29.97 1015 5 8 0.00 0.00
5:53 am 05:53 Mostly Clear with Mist and Fog 66 19 N/A N/A Calm 29.98 1015 2 3 0.00 0.00
5:56 am 05:56 Mostly Clear with Mist and Fog 66 19 N/A N/A Calm 29.98 1015 2 2 0.00 0.00
6:13 am 06:13 Mostly Cloudy with Mist and Fog 68 20 N/A N/A W 3 6 29.97 1015 2 3 0.00 0.00
6:46 am 06:46 Mostly Cloudy with Mist and Fog 66 19 N/A N/A Calm 29.99 1015 3 5 0.00 0.00
6:56 am 06:56 Mostly Cloudy with Mist and Fog 66 19 N/A N/A Calm 29.99 1016 3 4 0.00 0.00
7:14 am 07:14 Mostly Cloudy with Haze 66 19 N/A N/A Calm 29.99 1015 4 6 0.00 0.00
7:25 am 07:25 Partly Cloudy with Mist and Fog 66 19 N/A N/A W 3 6 29.99 1015 2 3 0.00 0.00
7:40 am 07:40 Sunny with Mist and Fog 68 20 N/A N/A Calm 29.98 1015 2 3 0.00 0.00
7:56 am 07:56 Sunny with Mist and Fog 70 21 N/A N/A Calm 30.00 1016 3 5 0.00 0.00
8:56 am 08:56 Sunny 76 24.4 75 23.9 97 97 Calm 29.99 1016 8 13 0.00 0.00
9:56 am 09:56 Sunny 81 27.2 78 25.6 91 91 Calm 30.00 1016 10 16 0.00 0.00
10:56 am 10:56 Sunny 84 28.9 76 24.4 77 77 WNW 7 11 30.01 1016 10 16 0.00 0.00
11:56 am 11:56 Mostly Sunny 86 30 75 23.9 70 70 NW 8 13 30.01 1016 10 16 0.00 0.00
12:56 pm 12:56 Mostly Sunny 88 31.1 74 23.3 63 63 WNW 8 13 30.00 1016 10 16 0.00 0.00
1:56 pm 13:56 Mostly Sunny 89 31.7 73 22.8 59 59 NW 10 17 29.99 1016 10 16 0.00 0.00
2:56 pm 14:56 Mostly Sunny 89 31.7 73 22.8 59 59 NW 9 15 29.99 1016 10 16 0.00 0.00
3:56 pm 15:56 Mostly Sunny 90 32.2 71 21.7 54 54 NNW 12 19 29.98 1015 10 16 0.00 0.00
4:56 pm 16:56 Sunny 90 32.2 70 21.1 52 52 WNW 8 13 29.96 1015 10 16 0.00 0.00
5:56 pm 17:56 Mostly Sunny 88 31.1 71 21.7 57 57 NNW 10 17 29.96 1015 10 16 0.00 0.00
6:56 pm 18:56 Sunny 87 30.6 71 21.7 59 59 NW 6 9 29.96 1014 10 16 0.00 0.00
7:56 pm 19:56 Sunny 81 27.2 73 22.8 77 77 Calm 29.96 1014 10 16 0.00 0.00
8:56 pm 20:56 Clear 76 24.4 76 24.4 100 100 WNW 3 6 29.99 1016 10 16 0.00 0.00
9:56 pm 21:56 Clear 73 23 N/A N/A Calm 30.00 1016 10 16 0.00 0.00
10:56 pm 22:56 Clear 70 21 N/A N/A Calm 30.01 1016 10 16 0.00 0.00
11:56 pm 23:56 Clear 70 21 N/A N/A Calm 30.01 1016 10 16 0.00 0.00

Powered by AerisWeather